Station Historical Data
Daily Summary for September 8, 2017 Units:  English    Metric   Both
« Previous Day
Next Day »
Daily Weekly Monthly Yearly Custom
  High: Low: Average:
Temperature: 80.3 °F 52.1 °F 64.5 °F
Dew Point: 57.7 °F 49.6 °F 53.9 °F
Humidity: 92% 40% 72%
Wind Speed: 1.0mph 0.0mph 0mph
Wind Gust: 3.0mph - -
Wind- - WSW
Pressure: 30.21 in 30.14 in -
Precipitation: 0.00 in    
Historical Graphs
 
 
Tabular Data for September 8, 2017
Time Temperature Dew Point Pressure Wind Wind Speed Wind Gust Humidity Rainfall Rate (Hourly) solar Conditions
00:00 58.6 °F 53.5 °F 30.16 in Calm     83% 0.00 in WeatherDisplay:10.37 W/m2 CLR
00:05 58.6 °F 53.8 °F 30.16 in Calm     84% 0.00 in WeatherDisplay:10.37 W/m2 CLR
00:10 58.7 °F 53.9 °F 30.16 in Calm     84% 0.00 in WeatherDisplay:10.37 W/m2 CLR
00:15 58.6 °F 53.5 °F 30.16 in Calm     83% 0.00 in WeatherDisplay:10.37 W/m2 CLR
00:20 58.5 °F 53.4 °F 30.16 in Calm     83% 0.00 in WeatherDisplay:10.37 W/m2 CLR
00:25 58.4 °F 52.9 °F 30.16 in Calm     82% 0.00 in WeatherDisplay:10.37 W/m2 CLR
00:30 58.9 °F 52.7 °F 30.16 in Calm   1.0 mph 80% 0.00 in WeatherDisplay:10.37 W/m2 CLR
00:40 59.5 °F 53.3 °F 30.16 in Calm     80% 0.00 in WeatherDisplay:10.37 W/m2 CLR
00:45 59.0 °F 53.5 °F 30.16 in Calm     82% 0.00 in WeatherDisplay:10.37 W/m2 CLR
00:50 58.6 °F 53.1 °F 30.16 in Calm     82% 0.00 in WeatherDisplay:10.37 W/m2 CLR
00:55 58.5 °F 53.4 °F 30.16 in Calm     83% 0.00 in WeatherDisplay:10.37 W/m2 CLR
01:00 58.2 °F 53.1 °F 30.16 in Calm     83% 0.00 in WeatherDisplay:10.37 W/m2 CLR
01:10 58.0 °F 53.2 °F 30.16 in Calm     84% 0.00 in WeatherDisplay:10.37 W/m2 CLR
01:15 57.8 °F 53.0 °F 30.16 in Calm     84% 0.00 in WeatherDisplay:10.37 W/m2 CLR
01:20 57.7 °F 52.9 °F 30.16 in Calm   1.0 mph 84% 0.00 in WeatherDisplay:10.37 W/m2 CLR
01:25 57.5 °F 53.0 °F 30.16 in Calm     85% 0.00 in WeatherDisplay:10.37 W/m2 CLR
01:30 57.2 °F 52.7 °F 30.16 in Calm     85% 0.00 in WeatherDisplay:10.37 W/m2 CLR
01:35 57.0 °F 52.5 °F 30.16 in Calm     85% 0.00 in WeatherDisplay:10.37 W/m2 CLR
01:40 56.8 °F 52.7 °F 30.16 in Calm     86% 0.00 in WeatherDisplay:10.37 W/m2 CLR
01:45 56.6 °F 52.5 °F 30.17 in Calm     86% 0.00 in WeatherDisplay:10.37 W/m2 CLR
01:50 56.5 °F 52.4 °F 30.17 in Calm     86% 0.00 in WeatherDisplay:10.37 W/m2 CLR
01:55 56.5 °F 52.4 °F 30.17 in Calm     86% 0.00 in WeatherDisplay:10.37 W/m2 CLR
02:00 56.3 °F 52.2 °F 30.17 in Calm     86% 0.00 in WeatherDisplay:10.37 W/m2 CLR
02:05 56.0 °F 51.9 °F 30.17 in Calm     86% 0.00 in WeatherDisplay:10.37 W/m2 CLR
02:10 55.7 °F 51.6 °F 30.17 in Calm     86% 0.00 in WeatherDisplay:10.37 W/m2 CLR
02:15 55.6 °F 51.8 °F 30.17 in Calm     87% 0.00 in WeatherDisplay:10.37 W/m2 CLR
02:20 55.5 °F 51.7 °F 30.17 in Calm     87% 0.00 in WeatherDisplay:10.37 W/m2 CLR
02:25 55.4 °F 51.6 °F 30.17 in Calm     87% 0.00 in WeatherDisplay:10.37 W/m2 CLR
02:30 55.3 °F 51.9 °F 30.16 in Calm     88% 0.00 in WeatherDisplay:10.37 W/m2 CLR
02:40 55.2 °F 51.7 °F 30.16 in Calm     88% 0.00 in WeatherDisplay:10.37 W/m2 CLR
02:45 55.0 °F 51.5 °F 30.17 in Calm     88% 0.00 in WeatherDisplay:10.37 W/m2 CLR
02:50 54.9 °F 51.4 °F 30.17 in Calm     88% 0.00 in WeatherDisplay:10.37 W/m2 CLR
02:55 54.8 °F 51.3 °F 30.16 in Calm     88% 0.00 in WeatherDisplay:10.37 W/m2 CLR
03:00 54.8 °F 51.6 °F 30.16 in Calm     89% 0.00 in WeatherDisplay:10.37 W/m2 CLR
03:10 54.7 °F 51.5 °F 30.17 in Calm     89% 0.00 in WeatherDisplay:10.37 W/m2 CLR
03:15 54.5 °F 51.3 °F 30.17 in Calm     89% 0.00 in WeatherDisplay:10.37 W/m2 CLR
03:20 54.3 °F 51.1 °F 30.16 in Calm     89% 0.00 in WeatherDisplay:10.37 W/m2 CLR
03:25 54.3 °F 51.1 °F 30.16 in Calm     89% 0.00 in WeatherDisplay:10.37 W/m2 CLR
03:30 54.2 °F 51.0 °F 30.16 in Calm     89% 0.00 in WeatherDisplay:10.37 W/m2 CLR
03:35 54.1 °F 50.9 °F 30.16 in Calm     89% 0.00 in WeatherDisplay:10.37 W/m2 CLR
03:40 54.1 °F 51.2 °F 30.16 in Calm     90% 0.00 in WeatherDisplay:10.37 W/m2 CLR
03:45 54.0 °F 51.1 °F 30.16 in Calm     90% 0.00 in WeatherDisplay:10.37 W/m2 CLR
03:50 53.9 °F 51.0 °F 30.16 in Calm     90% 0.00 in WeatherDisplay:10.37 W/m2 CLR
03:55 53.8 °F 50.9 °F 30.16 in Calm     90% 0.00 in WeatherDisplay:10.37 W/m2 CLR
04:00 53.7 °F 50.8 °F 30.16 in Calm     90% 0.00 in WeatherDisplay:10.37 W/m2 CLR
04:10 53.6 °F 50.7 °F 30.16 in Calm     90% 0.00 in WeatherDisplay:10.37 W/m2 CLR
04:20 53.5 °F 50.6 °F 30.16 in Calm     90% 0.00 in WeatherDisplay:10.37 W/m2 CLR
04:25 53.4 °F 50.5 °F 30.16 in Calm     90% 0.00 in WeatherDisplay:10.37 W/m2 CLR
04:30 53.3 °F 50.4 °F 30.16 in Calm     90% 0.00 in WeatherDisplay:10.37 W/m2 CLR
04:35 53.3 °F 50.4 °F 30.16 in Calm     90% 0.00 in WeatherDisplay:10.37 W/m2 CLR
04:40 53.3 °F 50.7 °F 30.16 in Calm     91% 0.00 in WeatherDisplay:10.37 W/m2 CLR
04:45 53.3 °F 50.7 °F 30.16 in Calm     91% 0.00 in WeatherDisplay:10.37 W/m2 CLR
04:50 53.3 °F 50.7 °F 30.16 in Calm     91% 0.00 in WeatherDisplay:10.37 W/m2 CLR
04:55 53.3 °F 50.7 °F 30.16 in Calm     91% 0.00 in WeatherDisplay:10.37 W/m2 CLR
05:00 53.2 °F 50.6 °F 30.16 in Calm     91% 0.00 in WeatherDisplay:10.37 W/m2 CLR
05:05 53.3 °F 50.7 °F 30.17 in Calm     91% 0.00 in WeatherDisplay:10.37 W/m2 CLR
05:10 53.3 °F 50.7 °F 30.17 in Calm     91% 0.00 in WeatherDisplay:10.37 W/m2 CLR
05:15 53.2 °F 50.7 °F 30.17 in Calm     91% 0.00 in WeatherDisplay:10.37 W/m2 CLR
05:20 53.2 °F 50.6 °F 30.17 in Calm     91% 0.00 in WeatherDisplay:10.37 W/m2 CLR
05:25 53.2 °F 50.6 °F 30.17 in Calm     91% 0.00 in WeatherDisplay:10.37 W/m2 CLR
05:30 53.1 °F 50.5 °F 30.17 in Calm     91% 0.00 in WeatherDisplay:10.37 W/m2 CLR
05:35 53.0 °F 50.4 °F 30.17 in Calm     91% 0.00 in WeatherDisplay:10.37 W/m2 CLR
05:40 52.9 °F 50.3 °F 30.17 in Calm     91% 0.00 in WeatherDisplay:10.37 W/m2 CLR
05:45 52.9 °F 50.3 °F 30.17 in Calm     91% 0.00 in WeatherDisplay:10.37 W/m2 CLR
05:50 52.8 °F 50.2 °F 30.17 in Calm     91% 0.00 in WeatherDisplay:10.37 W/m2 CLR
05:55 52.7 °F 50.1 °F 30.17 in Calm     91% 0.00 in WeatherDisplay:10.37 W/m2 CLR
06:00 52.6 °F 50.1 °F 30.17 in Calm     91% 0.00 in WeatherDisplay:10.37 W/m2 CLR
06:05 52.6 °F 50.1 °F 30.17 in Calm     91% 0.00 in WeatherDisplay:10.37 W/m2 CLR
06:10 52.6 °F 50.0 °F 30.17 in Calm     91% 0.00 in WeatherDisplay:10.37 W/m2 CLR
06:15 52.6 °F 50.0 °F 30.17 in Calm     91% 0.00 in WeatherDisplay:10.37 W/m2 CLR
06:20 52.5 °F 49.9 °F 30.17 in Calm     91% 0.00 in WeatherDisplay:10.37 W/m2 CLR
06:25 52.4 °F 49.8 °F 30.17 in Calm     91% 0.00 in WeatherDisplay:10.37 W/m2 CLR
06:30 52.2 °F 49.7 °F 30.18 in Calm     91% 0.00 in WeatherDisplay:10.37 W/m2 CLR
06:35 52.1 °F 49.6 °F 30.18 in Calm     91% 0.00 in WeatherDisplay:10.37 W/m2 CLR
06:40 52.1 °F 49.6 °F 30.18 in Calm     91% 0.00 in WeatherDisplay:10.37 W/m2 CLR
06:45 52.2 °F 49.9 °F 30.18 in Calm     92% 0.00 in WeatherDisplay:10.37 W/m2 CLR
06:50 52.2 °F 49.9 °F 30.18 in Calm     92% 0.00 in WeatherDisplay:10.37 W/m2 CLR
06:55 52.2 °F 50.0 °F 30.18 in Calm     92% 0.00 in WeatherDisplay:10.37 W/m2 CLR
07:00 52.3 °F 50.0 °F 30.19 in Calm     92% 0.00 in WeatherDisplay:10.37 W/m2 CLR
07:05 52.2 °F 49.9 °F 30.19 in Calm     92% 0.00 in WeatherDisplay:10.37 W/m2 CLR
07:10 52.3 °F 50.0 °F 30.19 in Calm     92% 0.00 in WeatherDisplay:10.37 W/m2 CLR
07:15 52.3 °F 50.0 °F 30.19 in Calm     92% 0.00 in WeatherDisplay:10.37 W/m2 CLR
07:20 52.3 °F 50.0 °F 30.19 in Calm     92% 0.00 in WeatherDisplay:10.37 W/m2 SCT
07:25 52.2 °F 49.9 °F 30.19 in Calm     92% 0.00 in WeatherDisplay:10.37 W/m2 SCT
07:30 52.1 °F 49.8 °F 30.19 in Calm     92% 0.00 in WeatherDisplay:10.37 W/m2 SCT
07:35 52.1 °F 49.8 °F 30.19 in Calm     92% 0.00 in WeatherDisplay:10.37 W/m2 SCT
07:40 52.2 °F 49.9 °F 30.19 in Calm   1.0 mph 92% 0.00 in WeatherDisplay:10.37 W/m2 SCT
07:45 52.2 °F 50.0 °F 30.20 in Calm     92% 0.00 in WeatherDisplay:10.37 W/m2 SCT
07:50 52.6 °F 50.3 °F 30.20 in Calm     92% 0.00 in WeatherDisplay:10.37 W/m2 SCT
07:55 52.7 °F 50.5 °F 30.20 in Calm     92% 0.00 in WeatherDisplay:10.37 W/m2 SCT
08:00 53.0 °F 50.8 °F 30.20 in Calm     92% 0.00 in WeatherDisplay:10.37 W/m2 SCT
08:05 53.4 °F 51.1 °F 30.20 in Calm     92% 0.00 in WeatherDisplay:10.37 W/m2 SCT
08:10 53.9 °F 51.6 °F 30.21 in Calm     92% 0.00 in WeatherDisplay:10.37 W/m2 SCT
08:15 54.1 °F 51.8 °F 30.21 in Calm     92% 0.00 in WeatherDisplay:10.37 W/m2 SCT
08:20 54.5 °F 52.2 °F 30.21 in Calm     92% 0.00 in WeatherDisplay:10.37 W/m2 FEW
08:25 54.9 °F 52.6 °F 30.21 in Calm     92% 0.00 in WeatherDisplay:10.37 W/m2 FEW
08:30 55.3 °F 52.7 °F 30.21 in Calm     91% 0.00 in WeatherDisplay:10.37 W/m2 FEW
08:35 55.7 °F 52.8 °F 30.20 in Calm     90% 0.00 in WeatherDisplay:10.37 W/m2 FEW
08:40 56.0 °F 53.1 °F 30.20 in Calm     90% 0.00 in WeatherDisplay:10.37 W/m2 FEW
08:45 56.3 °F 53.1 °F 30.20 in Calm     89% 0.00 in WeatherDisplay:10.37 W/m2 FEW
08:50 56.6 °F 53.1 °F 30.21 in Calm     88% 0.00 in WeatherDisplay:10.37 W/m2 FEW
08:55 57.0 °F 53.5 °F 30.21 in Calm     88% 0.00 in WeatherDisplay:10.37 W/m2 FEW
09:00 57.3 °F 53.8 °F 30.20 in Calm     88% 0.00 in WeatherDisplay:10.37 W/m2 FEW
09:05 57.6 °F 53.4 °F 30.21 in Calm     86% 0.00 in WeatherDisplay:10.37 W/m2 FEW
09:10 58.0 °F 53.5 °F 30.21 in Calm     85% 0.00 in WeatherDisplay:10.37 W/m2 FEW
09:15 58.5 °F 53.7 °F 30.20 in Calm   1.0 mph 84% 0.00 in WeatherDisplay:10.37 W/m2 FEW
09:20 59.0 °F 54.2 °F 30.21 in Calm   1.0 mph 84% 0.00 in WeatherDisplay:10.37 W/m2 FEW
09:25 59.4 °F 53.9 °F 30.21 in Calm   1.0 mph 82% 0.00 in WeatherDisplay:10.37 W/m2 FEW
09:30 59.9 °F 54.4 °F 30.21 in Calm   1.0 mph 82% 0.00 in WeatherDisplay:10.37 W/m2 FEW
09:35 60.3 °F 54.5 °F 30.21 in Calm   2.0 mph 81% 0.00 in WeatherDisplay:10.37 W/m2 FEW
09:40 60.8 °F 54.2 °F 30.21 in Calm     79% 0.00 in WeatherDisplay:10.37 W/m2 FEW
09:45 61.3 °F 54.4 °F 30.21 in Calm   1.0 mph 78% 0.00 in WeatherDisplay:10.37 W/m2 FEW
09:50 61.8 °F 54.5 °F 30.21 in Calm   1.0 mph 77% 0.00 in WeatherDisplay:10.37 W/m2 FEW
09:55 62.2 °F 54.5 °F 30.21 in Calm   1.0 mph 76% 0.00 in WeatherDisplay:10.37 W/m2 FEW
10:00 62.6 °F 54.5 °F 30.21 in Calm   1.0 mph 75% 0.00 in WeatherDisplay:10.37 W/m2 FEW
10:05 62.9 °F 54.9 °F 30.21 in Calm   1.0 mph 75% 0.00 in WeatherDisplay:10.37 W/m2 FEW
10:10 63.3 °F 54.9 °F 30.21 in Calm   1.0 mph 74% 0.00 in WeatherDisplay:10.37 W/m2 FEW
10:15 63.7 °F 55.6 °F 30.21 in Calm   1.0 mph 75% 0.00 in WeatherDisplay:10.37 W/m2 FEW
10:20 64.2 °F 55.8 °F 30.21 in Calm   1.0 mph 74% 0.00 in WeatherDisplay:10.37 W/m2 FEW
10:25 64.6 °F 55.4 °F 30.21 in Calm   1.0 mph 72% 0.00 in WeatherDisplay:10.37 W/m2 FEW
10:30 65.0 °F 55.8 °F 30.21 in Calm   1.0 mph 72% 0.00 in WeatherDisplay:10.37 W/m2 FEW
10:35 65.5 °F 56.2 °F 30.21 in Calm   1.0 mph 72% 0.00 in WeatherDisplay:10.37 W/m2 FEW
10:40 66.1 °F 56.4 °F 30.21 in Calm   1.0 mph 71% 0.00 in WeatherDisplay:10.37 W/m2 FEW
10:45 66.6 °F 56.1 °F 30.21 in Calm     69% 0.00 in WeatherDisplay:10.37 W/m2 FEW
10:50 67.1 °F 57.0 °F 30.21 in Calm     70% 0.00 in WeatherDisplay:10.37 W/m2 FEW
10:55 67.6 °F 55.8 °F 30.21 in Calm     66% 0.00 in WeatherDisplay:10.37 W/m2 FEW
11:00 68.1 °F 57.5 °F 30.21 in Calm     69% 0.00 in WeatherDisplay:10.37 W/m2 FEW
11:10 69.0 °F 57.2 °F 30.21 in Calm     66% 0.00 in WeatherDisplay:10.37 W/m2 FEW
11:20 70.3 °F 56.6 °F 30.21 in Calm     62% 0.00 in WeatherDisplay:10.37 W/m2 FEW
11:25 70.7 °F 56.6 °F 30.21 in Calm   1.0 mph 61% 0.00 in WeatherDisplay:10.37 W/m2 FEW
11:30 70.9 °F 56.8 °F 30.21 in Calm     61% 0.00 in WeatherDisplay:10.37 W/m2 FEW
11:35 71.1 °F 56.0 °F 30.21 in NW 1.0 mph 2.0 mph 59% 0.00 in WeatherDisplay:10.37 W/m2 FEW
11:40 71.2 °F 55.6 °F 30.21 in Calm   1.0 mph 58% 0.00 in WeatherDisplay:10.37 W/m2 FEW
11:45 71.7 °F 56.6 °F 30.21 in Calm   1.0 mph 59% 0.00 in WeatherDisplay:10.37 W/m2 FEW
11:50 72.4 °F 56.7 °F 30.21 in Calm   1.0 mph 58% 0.00 in WeatherDisplay:10.37 W/m2 FEW
11:55 72.3 °F 54.7 °F 30.21 in Calm   3.0 mph 54% 0.00 in WeatherDisplay:10.37 W/m2 FEW
12:00 72.5 °F 55.4 °F 30.21 in Calm   1.0 mph 55% 0.00 in WeatherDisplay:10.37 W/m2 FEW
12:05 73.2 °F 55.5 °F 30.21 in Calm   1.0 mph 54% 0.00 in WeatherDisplay:10.37 W/m2 FEW
12:10 73.9 °F 54.1 °F 30.21 in West 1.0 mph 2.0 mph 50% 0.00 in WeatherDisplay:10.37 W/m2 FEW
12:15 74.6 °F 56.3 °F 30.21 in North 1.0 mph 2.0 mph 53% 0.00 in WeatherDisplay:10.37 W/m2 FEW
12:20 74.9 °F 53.9 °F 30.21 in Calm   1.0 mph 48% 0.00 in WeatherDisplay:10.37 W/m2 FEW
12:25 75.8 °F 55.9 °F 30.21 in NW 1.0 mph 2.0 mph 50% 0.00 in WeatherDisplay:10.37 W/m2 FEW
12:30 76.2 °F 52.7 °F 30.21 in West 1.0 mph 3.0 mph 44% 0.00 in WeatherDisplay:10.37 W/m2 FEW
12:40 76.2 °F 53.9 °F 30.20 in Calm   2.0 mph 46% 0.00 in WeatherDisplay:10.37 W/m2 FEW
12:45 77.0 °F 54.7 °F 30.20 in Calm     46% 0.00 in WeatherDisplay:10.37 W/m2 FEW
12:50 77.3 °F 52.4 °F 30.20 in NW 1.0 mph 2.0 mph 42% 0.00 in WeatherDisplay:10.37 W/m2 FEW
12:55 76.7 °F 53.1 °F 30.20 in Calm   2.0 mph 44% 0.00 in WeatherDisplay:10.37 W/m2 FEW
13:00 77.1 °F 52.8 °F 30.20 in Calm   2.0 mph 43% 0.00 in WeatherDisplay:10.37 W/m2 FEW
13:05 76.7 °F 52.6 °F 30.20 in East 1.0 mph 2.0 mph 43% 0.00 in WeatherDisplay:10.37 W/m2 FEW
13:10 76.5 °F 52.3 °F 30.20 in Calm   3.0 mph 43% 0.00 in WeatherDisplay:10.37 W/m2 FEW
13:15 77.5 °F 53.2 °F 30.20 in Calm   1.0 mph 43% 0.00 in WeatherDisplay:10.37 W/m2 FEW
13:20 77.2 °F 52.3 °F 30.20 in Calm   2.0 mph 42% 0.00 in WeatherDisplay:10.37 W/m2 FEW
13:25 77.6 °F 52.0 °F 30.20 in WNW 1.0 mph 2.0 mph 41% 0.00 in WeatherDisplay:10.37 W/m2 FEW
13:30 77.6 °F 52.0 °F 30.20 in Calm   2.0 mph 41% 0.00 in WeatherDisplay:10.37 W/m2 FEW
13:40 78.4 °F 54.7 °F 30.20 in NNW 1.0 mph 2.0 mph 44% 0.00 in WeatherDisplay:10.37 W/m2 FEW
13:45 78.7 °F 53.7 °F 30.20 in North 1.0 mph 2.0 mph 42% 0.00 in WeatherDisplay:10.37 W/m2 FEW
13:50 78.8 °F 55.7 °F 30.19 in Calm   2.0 mph 45% 0.00 in WeatherDisplay:10.37 W/m2 FEW
13:55 79.1 °F 56.6 °F 30.19 in Calm   1.0 mph 46% 0.00 in WeatherDisplay:10.37 W/m2 FEW
14:00 79.4 °F 55.6 °F 30.19 in Calm   1.0 mph 44% 0.00 in WeatherDisplay:10.37 W/m2 FEW
14:05 79.8 °F 54.0 °F 30.19 in Calm   1.0 mph 41% 0.00 in WeatherDisplay:10.37 W/m2 FEW
14:15 80.3 °F 56.4 °F 30.19 in Calm   1.0 mph 44% 0.00 in WeatherDisplay:10.37 W/m2 FEW
14:20 80.2 °F 53.7 °F 30.18 in Calm   1.0 mph 40% 0.00 in WeatherDisplay:10.37 W/m2 FEW
14:25 79.9 °F 54.1 °F 30.19 in Calm     41% 0.00 in WeatherDisplay:10.37 W/m2 FEW
14:30 79.7 °F 54.6 °F 30.18 in Calm   1.0 mph 42% 0.00 in WeatherDisplay:10.37 W/m2 FEW
14:40 78.8 °F 55.7 °F 30.18 in NNE 1.0 mph 2.0 mph 45% 0.00 in WeatherDisplay:10.37 W/m2 FEW
14:45 78.5 °F 53.5 °F 30.18 in Calm   1.0 mph 42% 0.00 in WeatherDisplay:10.37 W/m2 FEW
14:50 78.1 °F 53.1 °F 30.18 in Calm   2.0 mph 42% 0.00 in WeatherDisplay:10.37 W/m2 FEW
14:55 77.4 °F 52.5 °F 30.17 in Calm   2.0 mph 42% 0.00 in WeatherDisplay:10.37 W/m2 FEW
15:00 77.3 °F 53.7 °F 30.17 in Calm   2.0 mph 44% 0.00 in WeatherDisplay:10.37 W/m2 FEW
15:05 77.0 °F 54.0 °F 30.17 in Calm   1.0 mph 45% 0.00 in WeatherDisplay:10.37 W/m2 FEW
15:10 76.8 °F 53.2 °F 30.17 in Calm   1.0 mph 44% 0.00 in WeatherDisplay:10.37 W/m2 FEW
15:15 76.8 °F 54.5 °F 30.16 in Calm   1.0 mph 46% 0.00 in WeatherDisplay:10.37 W/m2 FEW
15:20 76.8 °F 53.2 °F 30.17 in Calm   1.0 mph 44% 0.00 in WeatherDisplay:10.37 W/m2 FEW
15:25 76.7 °F 53.2 °F 30.16 in Calm   1.0 mph 44% 0.00 in WeatherDisplay:10.37 W/m2 FEW
15:30 76.6 °F 53.1 °F 30.16 in Calm     44% 0.00 in WeatherDisplay:10.37 W/m2 FEW
15:35 76.5 °F 52.3 °F 30.16 in Calm   1.0 mph 43% 0.00 in WeatherDisplay:10.37 W/m2 FEW
15:40 76.4 °F 53.5 °F 30.16 in Calm   1.0 mph 45% 0.00 in WeatherDisplay:10.37 W/m2 FEW
15:45 76.3 °F 54.0 °F 30.16 in Calm   1.0 mph 46% 0.00 in WeatherDisplay:10.37 W/m2 FEW
15:50 76.2 °F 53.9 °F 30.16 in Calm   1.0 mph 46% 0.00 in WeatherDisplay:10.37 W/m2 FEW
15:55 76.2 °F 53.3 °F 30.16 in Calm   1.0 mph 45% 0.00 in WeatherDisplay:10.37 W/m2 FEW
16:00 76.1 °F 53.3 °F 30.16 in Calm   1.0 mph 45% 0.00 in WeatherDisplay:10.37 W/m2 FEW
16:10 76.2 °F 54.5 °F 30.15 in Calm   1.0 mph 47% 0.00 in WeatherDisplay:10.37 W/m2 FEW
16:15 76.3 °F 53.4 °F 30.15 in Calm   1.0 mph 45% 0.00 in WeatherDisplay:10.37 W/m2 FEW
16:20 76.2 °F 53.3 °F 30.15 in Calm   1.0 mph 45% 0.00 in WeatherDisplay:10.37 W/m2 FEW
16:25 76.3 °F 55.7 °F 30.15 in Calm     49% 0.00 in WeatherDisplay:10.37 W/m2 FEW
16:30 76.3 °F 54.0 °F 30.14 in Calm     46% 0.00 in WeatherDisplay:10.37 W/m2 FEW
16:35 76.4 °F 54.1 °F 30.14 in NNW 1.0 mph 2.0 mph 46% 0.00 in WeatherDisplay:10.37 W/m2 FEW
16:40 76.3 °F 54.6 °F 30.14 in Calm   1.0 mph 47% 0.00 in WeatherDisplay:10.37 W/m2 FEW
16:45 76.3 °F 55.2 °F 30.14 in Calm   1.0 mph 48% 0.00 in WeatherDisplay:10.37 W/m2 FEW
16:50 76.2 °F 55.1 °F 30.14 in Calm   1.0 mph 48% 0.00 in WeatherDisplay:10.37 W/m2 FEW
16:55 76.1 °F 55.0 °F 30.14 in West 1.0 mph 2.0 mph 48% 0.00 in WeatherDisplay:10.37 W/m2 FEW
17:00 76.1 °F 55.5 °F 30.14 in Calm   1.0 mph 49% 0.00 in WeatherDisplay:10.37 W/m2 FEW
17:10 75.8 °F 55.3 °F 30.14 in Calm   1.0 mph 49% 0.00 in WeatherDisplay:10.37 W/m2 FEW
17:15 75.7 °F 56.3 °F 30.14 in Calm   1.0 mph 51% 0.00 in WeatherDisplay:10.37 W/m2 FEW
17:20 75.7 °F 54.6 °F 30.14 in Calm   1.0 mph 48% 0.00 in WeatherDisplay:10.37 W/m2 FEW
17:25 75.5 °F 54.4 °F 30.14 in Calm     48% 0.00 in WeatherDisplay:10.37 W/m2 FEW
17:30 75.5 °F 55.6 °F 30.14 in Calm     50% 0.00 in WeatherDisplay:10.37 W/m2 FEW
17:35 75.4 °F 54.9 °F 30.14 in Calm   1.0 mph 49% 0.00 in WeatherDisplay:10.37 W/m2 FEW
17:40 75.3 °F 55.4 °F 30.14 in Calm     50% 0.00 in WeatherDisplay:10.37 W/m2 FEW
17:45 75.2 °F 55.8 °F 30.14 in Calm     51% 0.00 in WeatherDisplay:10.37 W/m2 FEW
17:50 75.1 °F 56.8 °F 30.14 in Calm   1.0 mph 53% 0.00 in WeatherDisplay:10.37 W/m2 FEW
17:55 75.0 °F 56.7 °F 30.14 in Calm   1.0 mph 53% 0.00 in WeatherDisplay:10.37 W/m2 FEW
18:00 74.8 °F 56.0 °F 30.14 in Calm   1.0 mph 52% 0.00 in WeatherDisplay:10.37 W/m2 FEW
18:05 74.7 °F 54.8 °F 30.14 in Calm   1.0 mph 50% 0.00 in WeatherDisplay:10.37 W/m2 FEW
18:10 74.6 °F 55.3 °F 30.14 in Calm     51% 0.00 in WeatherDisplay:10.37 W/m2 FEW
18:20 74.3 °F 56.1 °F 30.14 in Calm     53% 0.00 in WeatherDisplay:10.37 W/m2 FEW
18:25 74.1 °F 55.9 °F 30.15 in Calm     53% 0.00 in WeatherDisplay:10.37 W/m2 FEW
18:30 73.9 °F 55.7 °F 30.15 in Calm     53% 0.00 in WeatherDisplay:10.37 W/m2 FEW
18:35 73.5 °F 57.4 °F 30.14 in Calm     57% 0.00 in WeatherDisplay:10.37 W/m2 FEW
18:40 73.1 °F 57.4 °F 30.14 in Calm     58% 0.00 in WeatherDisplay:10.37 W/m2 FEW
18:45 72.8 °F 57.2 °F 30.14 in Calm     58% 0.00 in WeatherDisplay:10.37 W/m2 FEW
18:50 72.5 °F 56.9 °F 30.14 in Calm     58% 0.00 in WeatherDisplay:10.37 W/m2 FEW
19:00 71.9 °F 57.3 °F 30.14 in Calm     60% 0.00 in WeatherDisplay:10.37 W/m2 FEW
19:05 71.7 °F 57.0 °F 30.14 in Calm     60% 0.00 in WeatherDisplay:10.37 W/m2 FEW
19:10 71.5 °F 57.3 °F 30.15 in Calm     61% 0.00 in WeatherDisplay:10.37 W/m2 FEW
19:15 71.3 °F 56.7 °F 30.15 in Calm     60% 0.00 in WeatherDisplay:10.37 W/m2 FEW
19:20 71.2 °F 57.5 °F 30.14 in Calm     62% 0.00 in WeatherDisplay:10.37 W/m2 FEW
19:25 70.9 °F 57.2 °F 30.14 in Calm     62% 0.00 in WeatherDisplay:10.37 W/m2 FEW
19:30 70.6 °F 57.4 °F 30.14 in Calm     63% 0.00 in WeatherDisplay:10.37 W/m2 FEW
19:35 70.4 °F 57.2 °F 30.15 in Calm     63% 0.00 in WeatherDisplay:10.37 W/m2 FEW
19:40 70.2 °F 57.0 °F 30.15 in Calm     63% 0.00 in WeatherDisplay:10.37 W/m2 FEW
19:45 69.9 °F 57.2 °F 30.14 in Calm     64% 0.00 in WeatherDisplay:10.37 W/m2 FEW
19:50 69.7 °F 57.4 °F 30.14 in Calm     65% 0.00 in WeatherDisplay:10.37 W/m2 FEW
19:55 69.4 °F 57.1 °F 30.14 in Calm     65% 0.00 in WeatherDisplay:10.37 W/m2 FEW
20:00 69.1 °F 57.3 °F 30.14 in Calm     66% 0.00 in WeatherDisplay:10.37 W/m2 FEW
20:10 68.6 °F 56.8 °F 30.15 in Calm     66% 0.00 in WeatherDisplay:10.37 W/m2 FEW
20:15 68.4 °F 57.0 °F 30.15 in Calm     67% 0.00 in WeatherDisplay:10.37 W/m2 FEW
20:20 68.1 °F 56.8 °F 30.15 in Calm     67% 0.00 in WeatherDisplay:10.37 W/m2 FEW
20:25 67.9 °F 57.4 °F 30.15 in Calm     69% 0.00 in WeatherDisplay:10.37 W/m2 FEW
20:30 67.6 °F 57.1 °F 30.15 in Calm     69% 0.00 in WeatherDisplay:10.37 W/m2 FEW
20:35 67.5 °F 57.4 °F 30.15 in Calm     70% 0.00 in WeatherDisplay:10.37 W/m2 FEW
20:40 67.3 °F 56.7 °F 30.15 in Calm     69% 0.00 in WeatherDisplay:10.37 W/m2 FEW
20:45 67.1 °F 57.0 °F 30.16 in Calm     70% 0.00 in WeatherDisplay:10.37 W/m2 FEW
20:50 66.9 °F 57.2 °F 30.16 in Calm     71% 0.00 in WeatherDisplay:10.37 W/m2 FEW
20:55 66.8 °F 57.1 °F 30.16 in Calm     71% 0.00 in WeatherDisplay:10.37 W/m2 FEW
21:00 66.6 °F 56.9 °F 30.16 in Calm     71% 0.00 in WeatherDisplay:10.37 W/m2 FEW
21:10 66.2 °F 57.7 °F 30.17 in Calm     74% 0.00 in WeatherDisplay:10.37 W/m2 FEW
21:15 66.0 °F 57.1 °F 30.17 in Calm     73% 0.00 in WeatherDisplay:10.37 W/m2 FEW
21:20 65.8 °F 57.3 °F 30.17 in Calm     74% 0.00 in WeatherDisplay:10.37 W/m2 CLR
21:25 65.6 °F 57.1 °F 30.17 in Calm     74% 0.00 in WeatherDisplay:10.37 W/m2 CLR
21:30 65.5 °F 57.3 °F 30.17 in Calm     75% 0.00 in WeatherDisplay:10.37 W/m2 CLR
21:40 65.1 °F 57.4 °F 30.17 in Calm     76% 0.00 in WeatherDisplay:10.37 W/m2 CLR
21:45 65.0 °F 57.2 °F 30.18 in Calm     76% 0.00 in WeatherDisplay:10.37 W/m2 CLR
21:50 64.8 °F 57.4 °F 30.18 in Calm     77% 0.00 in WeatherDisplay:10.37 W/m2 CLR
21:55 64.6 °F 57.6 °F 30.18 in Calm     78% 0.00 in WeatherDisplay:10.37 W/m2 CLR
22:00 64.4 °F 57.4 °F 30.17 in Calm     78% 0.00 in WeatherDisplay:10.37 W/m2 CLR
22:05 64.3 °F 57.6 °F 30.18 in Calm     79% 0.00 in WeatherDisplay:10.37 W/m2 CLR
22:15 64.1 °F 57.5 °F 30.18 in Calm     79% 0.00 in WeatherDisplay:10.37 W/m2 CLR
22:20 63.9 °F 57.3 °F 30.18 in Calm     79% 0.00 in WeatherDisplay:10.37 W/m2 CLR
22:25 63.8 °F 57.2 °F 30.18 in Calm     79% 0.00 in WeatherDisplay:10.37 W/m2 CLR
22:30 63.7 °F 57.1 °F 30.18 in Calm     79% 0.00 in WeatherDisplay:10.37 W/m2 CLR
22:35 63.5 °F 57.2 °F 30.18 in Calm     80% 0.00 in WeatherDisplay:10.37 W/m2 CLR
22:40 63.4 °F 57.1 °F 30.18 in Calm     80% 0.00 in WeatherDisplay:10.37 W/m2 CLR
22:45 63.2 °F 56.6 °F 30.18 in Calm     79% 0.00 in WeatherDisplay:10.37 W/m2 CLR
22:50 63.2 °F 57.3 °F 30.18 in Calm     81% 0.00 in WeatherDisplay:10.37 W/m2 CLR
22:55 63.0 °F 57.1 °F 30.18 in Calm     81% 0.00 in WeatherDisplay:10.37 W/m2 CLR
23:00 62.9 °F 57.0 °F 30.18 in Calm     81% 0.00 in WeatherDisplay:10.37 W/m2 CLR
23:10 62.6 °F 57.0 °F 30.18 in Calm   1.0 mph 82% 0.00 in WeatherDisplay:10.37 W/m2 CLR
23:20 62.4 °F 56.8 °F 30.18 in Calm     82% 0.00 in WeatherDisplay:10.37 W/m2 CLR
23:25 62.2 °F 56.6 °F 30.18 in Calm     82% 0.00 in WeatherDisplay:10.37 W/m2 CLR
23:30 62.1 °F 56.9 °F 30.18 in Calm     83% 0.00 in WeatherDisplay:10.37 W/m2 CLR
23:40 61.9 °F 56.7 °F 30.19 in Calm     83% 0.00 in WeatherDisplay:10.37 W/m2 CLR
23:45 61.7 °F 56.5 °F 30.19 in Calm     83% 0.00 in WeatherDisplay:10.37 W/m2 CLR
23:50 61.6 °F 56.0 °F 30.19 in Calm     82% 0.00 in WeatherDisplay:10.37 W/m2 CLR
23:55 61.7 °F 56.5 °F 30.19 in Calm     83% 0.00 in WeatherDisplay:10.37 W/m2 CLR
Piedmont Bend
Compliments of Weather Underground - 4 mb